Weather History for York, NE

Change the Weather History Date:

Friday, April 4, 2014

  Actual Average Record
Temperature  
Mean Temperature 38 °F -  
Max Temperature 44 °F 55 °F 83 °F (1959)
Min Temperature 32 °F 32 °F 21 °F (1970)
Degree Days  
Heating Degree Days 27    
Moisture  
Dew Point 30 °F    
Average Humidity 83    
Maximum Humidity 100    
Minimum Humidity 57    
Precipitation  
Precipitation 0.02 in - - ()
Sea Level Pressure  
Sea Level Pressure 30.05 in    
Wind  
Wind Speed 18 mph (NNW)    
Max Wind Speed 28 mph    
Max Gust Speed 34 mph    
Visibility 10 miles    
Events      
Averages and records for this station are not official NWS values.
T = Trace of Precipitation, MM = Missing Value Source: NWS Daily Summary

Daily Weather History Graph

Daily Weather History Graph

Search for Another Location

Airport:

Trip Planner

Search our weather history database for the weather conditions in past years. The results will help you decide how hot, cold, wet, or windy it might be!

Date:

Astronomy

Apr. 04, 2014 Rise Set
Actual Time 7:08 AM CDT 7:58 PM CDT
Civil Twilight 6:41 AM CDT 8:26 PM CDT
Nautical Twilight 6:08 AM CDT 8:59 PM CDT
Astronomical Twilight 5:34 AM CDT 9:33 PM CDT
Moon 10:25 AM CDT (4/4) 12:19 AM CDT (4/4)
Length of Visible Light 13h 45m
Length of Day
12h 49m
Waxing Crescent, 25% of the Moon is Illuminated
Apr 4
Waxing Crescent
Apr 7
First Quarter
Apr 15
Full
Apr 22
Last Quarter
Apr 29
New

Hourly Weather History & Observations

Time (CDT) Temp. Windchill Dew Point Humidity Pressure Visibility Wind Dir Wind Speed Gust Speed Precip Events Conditions
12:15 AM 32.0 °F 20.8 °F 32.0 °F 100% 29.91 in 3.0 mi NW 17.3 mph - 0.01 in   Mostly Cloudy
12:35 AM 32.0 °F 19.2 °F 32.0 °F 100% 29.90 in 10.0 mi NW 23.0 mph 28.8 mph 0.02 in   Mostly Cloudy
12:55 AM 33.8 °F 21.6 °F 33.8 °F 100% 29.90 in 10.0 mi NW 23.0 mph 27.6 mph 0.02 in   Mostly Cloudy
1:15 AM 33.8 °F 21.9 °F 33.8 °F 100% 29.91 in 10.0 mi NW 21.9 mph - N/A   Mostly Cloudy
1:35 AM 33.8 °F 21.0 °F 32.0 °F 93% 29.91 in 10.0 mi NW 25.3 mph 32.2 mph N/A   Overcast
1:55 AM 33.8 °F 21.9 °F 32.0 °F 93% 29.91 in 10.0 mi NW 21.9 mph 27.6 mph N/A   Overcast
2:15 AM 33.8 °F 21.6 °F 32.0 °F 93% 29.91 in 10.0 mi NW 23.0 mph 31.1 mph N/A   Overcast
2:35 AM 33.8 °F 22.5 °F 32.0 °F 93% 29.92 in 10.0 mi NW 19.6 mph 29.9 mph N/A   Overcast
2:55 AM 32.0 °F 18.6 °F 32.0 °F 100% 29.92 in 10.0 mi NW 25.3 mph 32.2 mph N/A   Overcast
3:15 AM 32.0 °F 18.4 °F 32.0 °F 100% 29.93 in 10.0 mi NW 26.5 mph 34.5 mph N/A   Overcast
3:35 AM 32.0 °F 18.9 °F 32.0 °F 100% 29.93 in 10.0 mi NW 24.2 mph 29.9 mph N/A   Overcast
3:55 AM 32.0 °F 18.9 °F 32.0 °F 100% 29.94 in 10.0 mi NW 24.2 mph - N/A   Overcast
4:15 AM 32.0 °F 19.5 °F 32.0 °F 100% 29.94 in 10.0 mi NW 21.9 mph 27.6 mph N/A   Overcast
4:35 AM 32.0 °F 19.2 °F 32.0 °F 100% 29.95 in 10.0 mi NW 23.0 mph 28.8 mph N/A   Overcast
4:55 AM 32.0 °F 20.1 °F 30.2 °F 93% 29.97 in 10.0 mi NW 19.6 mph 28.8 mph N/A   Overcast
5:15 AM 32.0 °F 19.2 °F 30.2 °F 93% 29.97 in 10.0 mi NW 23.0 mph - N/A   Overcast
5:35 AM 32.0 °F 18.9 °F 30.2 °F 93% 29.98 in 10.0 mi NW 24.2 mph 31.1 mph N/A   Overcast
5:55 AM 32.0 °F 19.5 °F 28.4 °F 87% 29.99 in 10.0 mi NW 21.9 mph 29.9 mph N/A   Overcast
6:15 AM 32.0 °F 20.1 °F 28.4 °F 87% 29.99 in 10.0 mi NW 19.6 mph 31.1 mph N/A   Overcast
6:35 AM 32.0 °F 19.8 °F 28.4 °F 87% 30.00 in 10.0 mi NNW 20.7 mph 29.9 mph N/A   Overcast
6:55 AM 32.0 °F 19.5 °F 28.4 °F 87% 30.01 in 10.0 mi NW 21.9 mph 29.9 mph N/A   Overcast
7:15 AM 32.0 °F 21.6 °F 28.4 °F 87% 30.03 in 10.0 mi NNW 15.0 mph 26.5 mph N/A   Overcast
7:35 AM 32.0 °F 20.5 °F 28.4 °F 87% 30.03 in 10.0 mi NNW 18.4 mph 25.3 mph N/A   Overcast
7:55 AM 32.0 °F 21.2 °F 28.4 °F 87% 30.04 in 10.0 mi NNW 16.1 mph 28.8 mph N/A   Overcast
8:15 AM 32.0 °F 19.8 °F 28.4 °F 87% 30.04 in 10.0 mi NW 20.7 mph - N/A   Overcast
8:35 AM 32.0 °F 18.9 °F 26.6 °F 80% 30.05 in 10.0 mi NW 24.2 mph 28.8 mph N/A   Overcast
8:55 AM 32.0 °F 19.5 °F 26.6 °F 80% 30.05 in 10.0 mi NNW 21.9 mph 29.9 mph N/A   Scattered Clouds
9:15 AM 32.0 °F 20.1 °F 26.6 °F 80% 30.07 in 10.0 mi NW 19.6 mph 25.3 mph N/A   Mostly Cloudy
9:35 AM 32.0 °F 19.2 °F 28.4 °F 87% 30.07 in 10.0 mi NNW 23.0 mph 31.1 mph N/A   Mostly Cloudy
9:55 AM 32.0 °F 18.1 °F 28.4 °F 87% 30.08 in 10.0 mi NW 27.6 mph 34.5 mph N/A   Mostly Cloudy
10:15 AM 32.0 °F 20.8 °F 28.4 °F 87% 30.10 in 10.0 mi NNW 17.3 mph 28.8 mph N/A   Overcast
10:35 AM 32.0 °F 21.6 °F 28.4 °F 87% 30.10 in 10.0 mi NNW 15.0 mph 23.0 mph N/A   Overcast
10:55 AM 32.0 °F 20.5 °F 28.4 °F 87% 30.11 in 10.0 mi NW 18.4 mph 25.3 mph N/A   Overcast
11:15 AM 33.8 °F 23.2 °F 28.4 °F 81% 30.11 in 10.0 mi NNW 17.3 mph 24.2 mph N/A   Overcast
11:35 AM 35.6 °F 24.0 °F 28.4 °F 75% 30.12 in 10.0 mi NW 23.0 mph 27.6 mph N/A   Mostly Cloudy
11:55 AM 35.6 °F 23.7 °F 28.4 °F 75% 30.12 in 10.0 mi NW 24.2 mph 28.8 mph N/A   Scattered Clouds
12:15 PM 35.6 °F 24.2 °F 30.2 °F 81% 30.12 in 10.0 mi NW 21.9 mph 28.8 mph N/A   Clear
12:35 PM 37.4 °F 26.9 °F 32.0 °F 81% 30.13 in 10.0 mi NW 20.7 mph 25.3 mph N/A   Clear
1:15 PM 37.4 °F 28.5 °F 32.0 °F 81% 30.13 in 10.0 mi NNW 15.0 mph 21.9 mph N/A   Scattered Clouds
1:35 PM 37.4 °F 27.2 °F 32.0 °F 81% 30.13 in 10.0 mi NW 19.6 mph 24.2 mph N/A   Mostly Cloudy
1:55 PM 39.2 °F 30.2 °F 32.0 °F 75% 30.12 in 10.0 mi NW 17.3 mph 23.0 mph N/A   Mostly Cloudy
2:15 PM 37.4 °F 28.9 °F 30.2 °F 75% 30.12 in 10.0 mi NW 13.8 mph 17.3 mph N/A   Overcast
2:35 PM 37.4 °F 28.5 °F 30.2 °F 75% 30.12 in 10.0 mi NW 15.0 mph 21.9 mph N/A   Overcast
2:55 PM 39.2 °F 31.2 °F 30.2 °F 70% 30.12 in 10.0 mi NNW 13.8 mph - N/A   Overcast
3:15 PM 39.2 °F 30.8 °F 30.2 °F 70% 30.11 in 10.0 mi NW 15.0 mph 19.6 mph N/A   Overcast
3:55 PM 41.0 °F 33.5 °F 30.2 °F 65% 30.10 in 10.0 mi NW 13.8 mph 17.3 mph N/A   Scattered Clouds
4:15 PM 41.0 °F 35.8 °F 32.0 °F 70% 30.10 in 10.0 mi NNW 8.1 mph - N/A   Scattered Clouds
4:35 PM 41.0 °F 34.7 °F 30.2 °F 65% 30.10 in 10.0 mi NW 10.4 mph - N/A   Partly Cloudy
4:55 PM 41.0 °F 35.8 °F 32.0 °F 70% 30.09 in 10.0 mi NNW 8.1 mph - N/A   Clear
5:15 PM 41.0 °F 35.2 °F 30.2 °F 65% 30.09 in 10.0 mi NNW 9.2 mph 16.1 mph N/A   Clear
5:35 PM 42.8 °F 38.6 °F 30.2 °F 61% 30.09 in 10.0 mi NW 6.9 mph - N/A   Clear
5:55 PM 42.8 °F 38.6 °F 32.0 °F 66% 30.09 in 10.0 mi NW 6.9 mph - N/A   Clear
6:15 PM 44.6 °F 40.7 °F 30.2 °F 57% 30.09 in 10.0 mi North 6.9 mph - N/A   Clear
6:35 PM 42.8 °F 41.1 °F 30.2 °F 61% 30.08 in 10.0 mi North 3.5 mph - N/A   Clear
6:55 PM 42.8 °F - 30.2 °F 61% 30.08 in 10.0 mi Calm Calm - N/A   Clear
7:15 PM 41.0 °F 38.0 °F 30.2 °F 65% 30.09 in 10.0 mi NNE 4.6 mph - N/A   Clear
7:35 PM 39.2 °F - 32.0 °F 75% 30.09 in 10.0 mi Calm Calm - N/A   Clear
7:55 PM 39.2 °F - 32.0 °F 75% 30.10 in 10.0 mi Calm Calm - N/A   Clear
8:15 PM 37.4 °F - 30.2 °F 75% 30.10 in 10.0 mi Calm Calm - N/A   Clear
8:35 PM 35.6 °F - 30.2 °F 81% 30.10 in 10.0 mi Calm Calm - N/A   Clear
8:55 PM 33.8 °F 28.6 °F 30.2 °F 87% 30.11 in 10.0 mi ESE 5.8 mph - N/A   Clear
9:15 PM 32.0 °F 26.4 °F 30.2 °F 93% 30.11 in 10.0 mi ESE 5.8 mph - N/A   Clear
9:35 PM 33.8 °F 29.6 °F 30.2 °F 87% 30.11 in 10.0 mi SE 4.6 mph - N/A   Clear
9:55 PM 33.8 °F 28.6 °F 28.4 °F 81% 30.12 in 10.0 mi SE 5.8 mph - N/A   Clear
10:15 PM 32.0 °F 27.5 °F 28.4 °F 87% 30.12 in 10.0 mi SSE 4.6 mph - N/A   Clear
10:35 PM 32.0 °F 25.6 °F 28.4 °F 87% 30.11 in 10.0 mi SE 6.9 mph - N/A   Clear
10:55 PM 32.0 °F 25.6 °F 28.4 °F 87% 30.11 in 10.0 mi SSE 6.9 mph - N/A   Mostly Cloudy
11:15 PM 32.0 °F 25.6 °F 28.4 °F 87% 30.11 in 10.0 mi SSE 6.9 mph - N/A   Mostly Cloudy
11:35 PM 32.0 °F 25.6 °F 28.4 °F 87% 30.10 in 10.0 mi SE 6.9 mph - N/A   Scattered Clouds
11:55 PM 32.0 °F 25.6 °F 28.4 °F 87% 30.10 in 10.0 mi SE 6.9 mph - N/A   Clear